Location: Alfortville
(48.8058°N, 2.4204°E)
Time: 21:36:01
(UTC+00:00)

SR - Pass Details

Date: 21 April 2026
Orbit: 568 x 852 km, 66.7° (Epoch: 19 May)

Event Time Altitude Azimuth Distance (km) Brightness Sun altitude
Rises 23:23:07 0° 306° (NW) 3,349 ? -28.8°
Reaches altitude 10° 23:28:05 10° 268° (W) 2,457 ? -28.9°
Enters shadow 23:28:36 10° 263° (W) 2,438 ? -28.9°
